<?xml version="1.0" encoding="UTF-8" standalone="no" ?>
<gpx xmlns="http://www.topografix.com/GPX/1/1" creator="MapSource 6.11.6" version="1.1" xmlns:xsi="http://www.w3.org/2001/XMLSchema-instance" xsi:schemaLocation="http://www.topografix.com/GPX/1/1 http://www.topografix.com/GPX/1/1/gpx.xsd">

  <metadata>
    <link href="http://www.garmin.com">
      <text>Garmin International</text>
    </link>
    <time>2008-10-13T15:38:48Z</time>
    <bounds maxlat="50.029359" maxlon="6.801820" minlat="49.956733" minlon="6.751384"/>
  </metadata>

  <trk>
    <name>Etappe 13 Eifelsteig</name>
    <extensions>
      <gpxx:TrackExtension xmlns:gpxx="http://www.garmin.com/xmlschemas/GpxExtensions/v3" xmlns:xsi="http://www.w3.org/2001/XMLSchema-instance" xsi:schemaLocation="http://www.garmin.com/xmlschemas/GpxExtensions/v3 http://www.garmin.com/xmlschemas/GpxExtensions/v3/GpxExtensionsv3.xsd">
        <gpxx:DisplayColor>White</gpxx:DisplayColor>
      </gpxx:TrackExtension>
    </extensions>
    <trkseg>
      <trkpt lat="49.956733" lon="6.784514">
        <ele>188.000000</ele>
        <time>2008-06-25T16:15:09Z</time>
      </trkpt>
      <trkpt lat="49.956733" lon="6.784514">
        <time>2008-06-25T16:15:09Z</time>
      </trkpt>
      <trkpt lat="49.957083" lon="6.784520">
        <time>2008-06-25T16:15:09Z</time>
      </trkpt>
      <trkpt lat="49.957083" lon="6.784520">
        <time>2008-06-25T16:15:09Z</time>
      </trkpt>
      <trkpt lat="49.957173" lon="6.784493">
        <time>2008-06-25T16:15:09Z</time>
      </trkpt>
      <trkpt lat="49.957383" lon="6.784148">
        <time>2008-06-25T16:15:09Z</time>
      </trkpt>
      <trkpt lat="49.957585" lon="6.783413">
        <time>2008-06-25T16:15:09Z</time>
      </trkpt>
      <trkpt lat="49.957817" lon="6.782427">
        <time>2008-06-25T16:15:09Z</time>
      </trkpt>
      <trkpt lat="49.957817" lon="6.782427">
        <time>2008-06-25T16:15:09Z</time>
      </trkpt>
      <trkpt lat="49.957872" lon="6.782163">
        <time>2008-06-25T16:15:09Z</time>
      </trkpt>
      <trkpt lat="49.958053" lon="6.780675">
        <time>2008-06-25T16:15:09Z</time>
      </trkpt>
      <trkpt lat="49.958147" lon="6.778795">
        <time>2008-06-25T16:15:09Z</time>
      </trkpt>
      <trkpt lat="49.958468" lon="6.777811">
        <time>2008-06-25T16:15:09Z</time>
      </trkpt>
      <trkpt lat="49.958712" lon="6.777662">
        <time>2008-06-25T16:15:09Z</time>
      </trkpt>
      <trkpt lat="49.959357" lon="6.777951">
        <time>2008-06-25T16:15:09Z</time>
      </trkpt>
      <trkpt lat="49.959674" lon="6.777691">
        <time>2008-06-25T16:15:09Z</time>
      </trkpt>
      <trkpt lat="49.959674" lon="6.777691">
        <time>2008-06-25T16:15:09Z</time>
      </trkpt>
      <trkpt lat="49.960112" lon="6.777949">
        <time>2008-06-25T16:15:09Z</time>
      </trkpt>
      <trkpt lat="49.960613" lon="6.778389">
        <time>2008-06-25T16:15:09Z</time>
      </trkpt>
      <trkpt lat="49.961044" lon="6.778424">
        <time>2008-06-25T16:15:09Z</time>
      </trkpt>
      <trkpt lat="49.961718" lon="6.778560">
        <time>2008-06-25T16:15:09Z</time>
      </trkpt>
      <trkpt lat="49.962391" lon="6.778752">
        <time>2008-06-25T16:15:09Z</time>
      </trkpt>
      <trkpt lat="49.962564" lon="6.778351">
        <time>2008-06-25T16:15:09Z</time>
      </trkpt>
      <trkpt lat="49.962822" lon="6.777449">
        <time>2008-06-25T16:15:09Z</time>
      </trkpt>
      <trkpt lat="49.963107" lon="6.776562">
        <time>2008-06-25T16:15:09Z</time>
      </trkpt>
      <trkpt lat="49.963107" lon="6.776562">
        <time>2008-06-25T16:15:09Z</time>
      </trkpt>
      <trkpt lat="49.963370" lon="6.776232">
        <time>2008-06-25T16:15:09Z</time>
      </trkpt>
      <trkpt lat="49.963689" lon="6.775442">
        <time>2008-06-25T16:15:09Z</time>
      </trkpt>
      <trkpt lat="49.963689" lon="6.775442">
        <time>2008-06-25T16:15:09Z</time>
      </trkpt>
      <trkpt lat="49.963735" lon="6.775290">
        <time>2008-06-25T16:15:09Z</time>
      </trkpt>
      <trkpt lat="49.963783" lon="6.774886">
        <time>2008-06-25T16:15:09Z</time>
      </trkpt>
      <trkpt lat="49.963742" lon="6.774370">
        <time>2008-06-25T16:15:09Z</time>
      </trkpt>
      <trkpt lat="49.963521" lon="6.773795">
        <time>2008-06-25T16:15:09Z</time>
      </trkpt>
      <trkpt lat="49.962950" lon="6.773075">
        <time>2008-06-25T16:15:09Z</time>
      </trkpt>
      <trkpt lat="49.962422" lon="6.772662">
        <time>2008-06-25T16:15:09Z</time>
      </trkpt>
      <trkpt lat="49.961786" lon="6.772332">
        <ele>266.000000</ele>
        <time>2008-06-25T16:15:09Z</time>
      </trkpt>
      <trkpt lat="49.961786" lon="6.772332">
        <time>2008-06-25T16:15:09Z</time>
      </trkpt>
      <trkpt lat="49.961289" lon="6.771460">
        <time>2008-06-25T16:15:09Z</time>
      </trkpt>
      <trkpt lat="49.960899" lon="6.770575">
        <time>2008-06-25T16:15:09Z</time>
      </trkpt>
      <trkpt lat="49.960860" lon="6.769697">
        <time>2008-06-25T16:15:09Z</time>
      </trkpt>
      <trkpt lat="49.960973" lon="6.768834">
        <time>2008-06-25T16:15:09Z</time>
      </trkpt>
      <trkpt lat="49.961230" lon="6.768142">
        <time>2008-06-25T16:15:09Z</time>
      </trkpt>
      <trkpt lat="49.961230" lon="6.768142">
        <time>2008-06-25T16:15:09Z</time>
      </trkpt>
      <trkpt lat="49.961711" lon="6.767438">
        <time>2008-06-25T16:15:09Z</time>
      </trkpt>
      <trkpt lat="49.962226" lon="6.766973">
        <time>2008-06-25T16:15:09Z</time>
      </trkpt>
      <trkpt lat="49.962668" lon="6.766743">
        <time>2008-06-25T16:15:09Z</time>
      </trkpt>
      <trkpt lat="49.963148" lon="6.766249">
        <time>2008-06-25T16:15:09Z</time>
      </trkpt>
      <trkpt lat="49.963645" lon="6.765964">
        <time>2008-06-25T16:15:09Z</time>
      </trkpt>
      <trkpt lat="49.964430" lon="6.765447">
        <time>2008-06-25T16:15:09Z</time>
      </trkpt>
      <trkpt lat="49.965116" lon="6.764998">
        <time>2008-06-25T16:15:09Z</time>
      </trkpt>
      <trkpt lat="49.965370" lon="6.764653">
        <time>2008-06-25T16:15:09Z</time>
      </trkpt>
      <trkpt lat="49.965582" lon="6.764002">
        <time>2008-06-25T16:15:09Z</time>
      </trkpt>
      <trkpt lat="49.965809" lon="6.763559">
        <time>2008-06-25T16:15:09Z</time>
      </trkpt>
      <trkpt lat="49.966108" lon="6.763229">
        <time>2008-06-25T16:15:09Z</time>
      </trkpt>
      <trkpt lat="49.966308" lon="6.762954">
        <time>2008-06-25T16:15:09Z</time>
      </trkpt>
      <trkpt lat="49.966588" lon="6.762763">
        <time>2008-06-25T16:15:09Z</time>
      </trkpt>
      <trkpt lat="49.967252" lon="6.762941">
        <time>2008-06-25T16:15:09Z</time>
      </trkpt>
      <trkpt lat="49.967548" lon="6.762960">
        <time>2008-06-25T16:15:09Z</time>
      </trkpt>
      <trkpt lat="49.967980" lon="6.762869">
        <time>2008-06-25T16:15:09Z</time>
      </trkpt>
      <trkpt lat="49.968278" lon="6.762762">
        <time>2008-06-25T16:15:09Z</time>
      </trkpt>
      <trkpt lat="49.968278" lon="6.762762">
        <time>2008-06-25T16:15:09Z</time>
      </trkpt>
      <trkpt lat="49.968459" lon="6.762570">
        <time>2008-06-25T16:15:09Z</time>
      </trkpt>
      <trkpt lat="49.968540" lon="6.762543">
        <time>2008-06-25T16:15:09Z</time>
      </trkpt>
      <trkpt lat="49.968540" lon="6.762543">
        <time>2008-06-25T16:15:09Z</time>
      </trkpt>
      <trkpt lat="49.968765" lon="6.762519">
        <time>2008-06-25T16:15:09Z</time>
      </trkpt>
      <trkpt lat="49.969150" lon="6.762804">
        <time>2008-06-25T16:15:09Z</time>
      </trkpt>
      <trkpt lat="49.969150" lon="6.762804">
        <time>2008-06-25T16:15:09Z</time>
      </trkpt>
      <trkpt lat="49.969268" lon="6.762569">
        <time>2008-06-25T16:15:09Z</time>
      </trkpt>
      <trkpt lat="49.969577" lon="6.762113">
        <time>2008-06-25T16:15:09Z</time>
      </trkpt>
      <trkpt lat="49.969993" lon="6.761702">
        <time>2008-06-25T16:15:09Z</time>
      </trkpt>
      <trkpt lat="49.971219" lon="6.761233">
        <time>2008-06-25T16:15:09Z</time>
      </trkpt>
      <trkpt lat="49.971750" lon="6.761158">
        <time>2008-06-25T16:15:09Z</time>
      </trkpt>
      <trkpt lat="49.971795" lon="6.761187">
        <time>2008-06-25T16:15:09Z</time>
      </trkpt>
      <trkpt lat="49.971795" lon="6.761187">
        <time>2008-06-25T16:15:09Z</time>
      </trkpt>
      <trkpt lat="49.972144" lon="6.761345">
        <time>2008-06-25T16:15:09Z</time>
      </trkpt>
      <trkpt lat="49.972773" lon="6.761369">
        <time>2008-06-25T16:15:09Z</time>
      </trkpt>
      <trkpt lat="49.973437" lon="6.761575">
        <time>2008-06-25T16:15:09Z</time>
      </trkpt>
      <trkpt lat="49.973881" lon="6.762460">
        <time>2008-06-25T16:15:09Z</time>
      </trkpt>
      <trkpt lat="49.974154" lon="6.763329">
        <time>2008-06-25T16:15:09Z</time>
      </trkpt>
      <trkpt lat="49.973952" lon="6.763939">
        <time>2008-06-25T16:15:09Z</time>
      </trkpt>
      <trkpt lat="49.973617" lon="6.764366">
        <time>2008-06-25T16:15:09Z</time>
      </trkpt>
      <trkpt lat="49.973049" lon="6.764580">
        <time>2008-06-25T16:15:09Z</time>
      </trkpt>
      <trkpt lat="49.972554" lon="6.764698">
        <time>2008-06-25T16:15:09Z</time>
      </trkpt>
      <trkpt lat="49.972400" lon="6.764807">
        <time>2008-06-25T16:15:09Z</time>
      </trkpt>
      <trkpt lat="49.972400" lon="6.764807">
        <time>2008-06-25T16:15:09Z</time>
      </trkpt>
      <trkpt lat="49.972092" lon="6.765108">
        <time>2008-06-25T16:15:09Z</time>
      </trkpt>
      <trkpt lat="49.971828" lon="6.765676">
        <time>2008-06-25T16:15:09Z</time>
      </trkpt>
      <trkpt lat="49.971452" lon="6.766715">
        <time>2008-06-25T16:15:09Z</time>
      </trkpt>
      <trkpt lat="49.971388" lon="6.766923">
        <time>2008-06-25T16:15:09Z</time>
      </trkpt>
      <trkpt lat="49.971387" lon="6.767104">
        <time>2008-06-25T16:15:09Z</time>
      </trkpt>
      <trkpt lat="49.971467" lon="6.767231">
        <time>2008-06-25T16:15:09Z</time>
      </trkpt>
      <trkpt lat="49.971467" lon="6.767231">
        <time>2008-06-25T16:15:09Z</time>
      </trkpt>
      <trkpt lat="49.972018" lon="6.766766">
        <time>2008-06-25T16:15:09Z</time>
      </trkpt>
      <trkpt lat="49.972380" lon="6.766423">
        <time>2008-06-25T16:15:09Z</time>
      </trkpt>
      <trkpt lat="49.972759" lon="6.766276">
        <time>2008-06-25T16:15:09Z</time>
      </trkpt>
      <trkpt lat="49.973183" lon="6.766018">
        <time>2008-06-25T16:15:09Z</time>
      </trkpt>
      <trkpt lat="49.973760" lon="6.765860">
        <time>2008-06-25T16:15:09Z</time>
      </trkpt>
      <trkpt lat="49.974271" lon="6.766035">
        <time>2008-06-25T16:15:09Z</time>
      </trkpt>
      <trkpt lat="49.974807" lon="6.766559">
        <time>2008-06-25T16:15:09Z</time>
      </trkpt>
      <trkpt lat="49.975469" lon="6.767100">
        <time>2008-06-25T16:15:09Z</time>
      </trkpt>
      <trkpt lat="49.976104" lon="6.768936">
        <time>2008-06-25T16:15:09Z</time>
      </trkpt>
      <trkpt lat="49.976328" lon="6.769079">
        <time>2008-06-25T16:15:09Z</time>
      </trkpt>
      <trkpt lat="49.976723" lon="6.769127">
        <time>2008-06-25T16:15:09Z</time>
      </trkpt>
      <trkpt lat="49.977371" lon="6.769068">
        <time>2008-06-25T16:15:09Z</time>
      </trkpt>
      <trkpt lat="49.977371" lon="6.769068">
        <time>2008-06-25T16:15:09Z</time>
      </trkpt>
      <trkpt lat="49.977711" lon="6.769185">
        <time>2008-06-25T16:15:09Z</time>
      </trkpt>
      <trkpt lat="49.977847" lon="6.769131">
        <time>2008-06-25T16:15:09Z</time>
      </trkpt>
      <trkpt lat="49.977822" lon="6.768852">
        <time>2008-06-25T16:15:09Z</time>
      </trkpt>
      <trkpt lat="49.977786" lon="6.768712">
        <time>2008-06-25T16:15:09Z</time>
      </trkpt>
      <trkpt lat="49.977786" lon="6.768712">
        <time>2008-06-25T16:15:09Z</time>
      </trkpt>
      <trkpt lat="49.977638" lon="6.767999">
        <time>2008-06-25T16:15:09Z</time>
      </trkpt>
      <trkpt lat="49.977480" lon="6.767424">
        <time>2008-06-25T16:15:09Z</time>
      </trkpt>
      <trkpt lat="49.977480" lon="6.767424">
        <time>2008-06-25T16:15:09Z</time>
      </trkpt>
      <trkpt lat="49.977036" lon="6.765243">
        <time>2008-06-25T16:15:09Z</time>
      </trkpt>
      <trkpt lat="49.977094" lon="6.764686">
        <time>2008-06-25T16:15:09Z</time>
      </trkpt>
      <trkpt lat="49.977348" lon="6.764369">
        <time>2008-06-25T16:15:09Z</time>
      </trkpt>
      <trkpt lat="49.977602" lon="6.763969">
        <time>2008-06-25T16:15:09Z</time>
      </trkpt>
      <trkpt lat="49.977824" lon="6.762983">
        <time>2008-06-25T16:15:09Z</time>
      </trkpt>
      <trkpt lat="49.977886" lon="6.761840">
        <time>2008-06-25T16:15:09Z</time>
      </trkpt>
      <trkpt lat="49.977889" lon="6.761338">
        <time>2008-06-25T16:15:09Z</time>
      </trkpt>
      <trkpt lat="49.978070" lon="6.761146">
        <time>2008-06-25T16:15:09Z</time>
      </trkpt>
      <trkpt lat="49.978313" lon="6.761080">
        <time>2008-06-25T16:15:09Z</time>
      </trkpt>
      <trkpt lat="49.978773" lon="6.760962">
        <time>2008-06-25T16:15:09Z</time>
      </trkpt>
      <trkpt lat="49.979125" lon="6.760703">
        <time>2008-06-25T16:15:09Z</time>
      </trkpt>
      <trkpt lat="49.979317" lon="6.760204">
        <time>2008-06-25T16:15:09Z</time>
      </trkpt>
      <trkpt lat="49.979357" lon="6.759591">
        <time>2008-06-25T16:15:09Z</time>
      </trkpt>
      <trkpt lat="49.979357" lon="6.759591">
        <time>2008-06-25T16:15:09Z</time>
      </trkpt>
      <trkpt lat="49.979605" lon="6.760208">
        <time>2008-06-25T16:15:09Z</time>
      </trkpt>
      <trkpt lat="49.979814" lon="6.761146">
        <time>2008-06-25T16:15:09Z</time>
      </trkpt>
      <trkpt lat="49.980215" lon="6.761724">
        <time>2008-06-25T16:15:09Z</time>
      </trkpt>
      <trkpt lat="49.980384" lon="6.762089">
        <time>2008-06-25T16:15:09Z</time>
      </trkpt>
      <trkpt lat="49.980562" lon="6.762315">
        <time>2008-06-25T16:15:09Z</time>
      </trkpt>
      <trkpt lat="49.981071" lon="6.762783">
        <time>2008-06-25T16:15:09Z</time>
      </trkpt>
      <trkpt lat="49.981799" lon="6.764147">
        <time>2008-06-25T16:15:09Z</time>
      </trkpt>
      <trkpt lat="49.982126" lon="6.765128">
        <time>2008-06-25T16:15:09Z</time>
      </trkpt>
      <trkpt lat="49.982126" lon="6.765128">
        <time>2008-06-25T16:15:09Z</time>
      </trkpt>
      <trkpt lat="49.982034" lon="6.765447">
        <time>2008-06-25T16:15:09Z</time>
      </trkpt>
      <trkpt lat="49.981836" lon="6.765416">
        <time>2008-06-25T16:15:09Z</time>
      </trkpt>
      <trkpt lat="49.981650" lon="6.765051">
        <time>2008-06-25T16:15:09Z</time>
      </trkpt>
      <trkpt lat="49.981367" lon="6.764321">
        <time>2008-06-25T16:15:09Z</time>
      </trkpt>
      <trkpt lat="49.980994" lon="6.763577">
        <time>2008-06-25T16:15:09Z</time>
      </trkpt>
      <trkpt lat="49.980476" lon="6.763066">
        <time>2008-06-25T16:15:09Z</time>
      </trkpt>
      <trkpt lat="49.979824" lon="6.762387">
        <time>2008-06-25T16:15:09Z</time>
      </trkpt>
      <trkpt lat="49.979137" lon="6.761609">
        <time>2008-06-25T16:15:09Z</time>
      </trkpt>
      <trkpt lat="49.978803" lon="6.761869">
        <time>2008-06-25T16:15:09Z</time>
      </trkpt>
      <trkpt lat="49.978803" lon="6.761869">
        <time>2008-06-25T16:15:09Z</time>
      </trkpt>
      <trkpt lat="49.978744" lon="6.762565">
        <time>2008-06-25T16:15:09Z</time>
      </trkpt>
      <trkpt lat="49.978443" lon="6.763215">
        <time>2008-06-25T16:15:09Z</time>
      </trkpt>
      <trkpt lat="49.978268" lon="6.763882">
        <time>2008-06-25T16:15:09Z</time>
      </trkpt>
      <trkpt lat="49.978146" lon="6.764716">
        <time>2008-06-25T16:15:09Z</time>
      </trkpt>
      <trkpt lat="49.978188" lon="6.765038">
        <time>2008-06-25T16:15:09Z</time>
      </trkpt>
      <trkpt lat="49.978436" lon="6.765613">
        <time>2008-06-25T16:15:09Z</time>
      </trkpt>
      <trkpt lat="49.978847" lon="6.766122">
        <time>2008-06-25T16:15:09Z</time>
      </trkpt>
      <trkpt lat="49.979259" lon="6.766337">
        <time>2008-06-25T16:15:09Z</time>
      </trkpt>
      <trkpt lat="49.979437" lon="6.766535">
        <time>2008-06-25T16:15:09Z</time>
      </trkpt>
      <trkpt lat="49.979496" lon="6.767136">
        <time>2008-06-25T16:15:09Z</time>
      </trkpt>
      <trkpt lat="49.979887" lon="6.767797">
        <time>2008-06-25T16:15:09Z</time>
      </trkpt>
      <trkpt lat="49.980065" lon="6.768149">
        <time>2008-06-25T16:15:09Z</time>
      </trkpt>
      <trkpt lat="49.980296" lon="6.768501">
        <time>2008-06-25T16:15:09Z</time>
      </trkpt>
      <trkpt lat="49.980296" lon="6.768501">
        <time>2008-06-25T16:15:09Z</time>
      </trkpt>
      <trkpt lat="49.981194" lon="6.770077">
        <time>2008-06-25T16:15:09Z</time>
      </trkpt>
      <trkpt lat="49.981883" lon="6.771914">
        <time>2008-06-25T16:15:09Z</time>
      </trkpt>
      <trkpt lat="49.982423" lon="6.773150">
        <ele>309.000000</ele>
        <time>2008-06-25T16:15:09Z</time>
      </trkpt>
      <trkpt lat="49.982423" lon="6.773150">
        <time>2008-06-25T16:15:09Z</time>
      </trkpt>
      <trkpt lat="49.983191" lon="6.772660">
        <ele>308.000000</ele>
        <time>2008-06-25T16:15:09Z</time>
      </trkpt>
      <trkpt lat="49.983191" lon="6.772660">
        <time>2008-06-25T16:15:09Z</time>
      </trkpt>
      <trkpt lat="49.983176" lon="6.773552">
        <time>2008-06-25T16:15:09Z</time>
      </trkpt>
      <trkpt lat="49.983176" lon="6.773552">
        <time>2008-06-25T16:15:09Z</time>
      </trkpt>
      <trkpt lat="49.983190" lon="6.774068">
        <time>2008-06-25T16:15:09Z</time>
      </trkpt>
      <trkpt lat="49.983190" lon="6.774068">
        <time>2008-06-25T16:15:09Z</time>
      </trkpt>
      <trkpt lat="49.983594" lon="6.774200">
        <time>2008-06-25T16:15:09Z</time>
      </trkpt>
      <trkpt lat="49.983970" lon="6.774374">
        <time>2008-06-25T16:15:09Z</time>
      </trkpt>
      <trkpt lat="49.984463" lon="6.774702">
        <time>2008-06-25T16:15:09Z</time>
      </trkpt>
      <trkpt lat="49.984686" lon="6.774873">
        <time>2008-06-25T16:15:09Z</time>
      </trkpt>
      <trkpt lat="49.984973" lon="6.775073">
        <time>2008-06-25T16:15:09Z</time>
      </trkpt>
      <trkpt lat="49.984973" lon="6.775073">
        <time>2008-06-25T16:15:09Z</time>
      </trkpt>
      <trkpt lat="49.984953" lon="6.775338">
        <time>2008-06-25T16:15:09Z</time>
      </trkpt>
      <trkpt lat="49.984949" lon="6.775840">
        <time>2008-06-25T16:15:09Z</time>
      </trkpt>
      <trkpt lat="49.984975" lon="6.776119">
        <time>2008-06-25T16:15:09Z</time>
      </trkpt>
      <trkpt lat="49.985008" lon="6.776482">
        <time>2008-06-25T16:15:09Z</time>
      </trkpt>
      <trkpt lat="49.985223" lon="6.776555">
        <time>2008-06-25T16:15:09Z</time>
      </trkpt>
      <trkpt lat="49.985665" lon="6.777692">
        <time>2008-06-25T16:15:09Z</time>
      </trkpt>
      <trkpt lat="49.986213" lon="6.777784">
        <time>2008-06-25T16:15:09Z</time>
      </trkpt>
      <trkpt lat="49.986213" lon="6.777784">
        <time>2008-06-25T16:15:09Z</time>
      </trkpt>
      <trkpt lat="49.986264" lon="6.778231">
        <time>2008-06-25T16:15:09Z</time>
      </trkpt>
      <trkpt lat="49.986297" lon="6.778678">
        <time>2008-06-25T16:15:09Z</time>
      </trkpt>
      <trkpt lat="49.986297" lon="6.778678">
        <time>2008-06-25T16:15:09Z</time>
      </trkpt>
      <trkpt lat="49.986347" lon="6.779223">
        <time>2008-06-25T16:15:09Z</time>
      </trkpt>
      <trkpt lat="49.986494" lon="6.780187">
        <time>2008-06-25T16:15:09Z</time>
      </trkpt>
      <trkpt lat="49.986658" lon="6.781082">
        <time>2008-06-25T16:15:09Z</time>
      </trkpt>
      <trkpt lat="49.986658" lon="6.781082">
        <time>2008-06-25T16:15:09Z</time>
      </trkpt>
      <trkpt lat="49.986586" lon="6.781123">
        <time>2008-06-25T16:15:09Z</time>
      </trkpt>
      <trkpt lat="49.986737" lon="6.781432">
        <time>2008-06-25T16:15:09Z</time>
      </trkpt>
      <trkpt lat="49.986960" lon="6.781757">
        <time>2008-06-25T16:15:09Z</time>
      </trkpt>
      <trkpt lat="49.987156" lon="6.781969">
        <time>2008-06-25T16:15:09Z</time>
      </trkpt>
      <trkpt lat="49.987326" lon="6.782069">
        <time>2008-06-25T16:15:09Z</time>
      </trkpt>
      <trkpt lat="49.987326" lon="6.782069">
        <time>2008-06-25T16:15:09Z</time>
      </trkpt>
      <trkpt lat="49.987409" lon="6.781764">
        <time>2008-06-25T16:15:09Z</time>
      </trkpt>
      <trkpt lat="49.987575" lon="6.781223">
        <time>2008-06-25T16:15:09Z</time>
      </trkpt>
      <trkpt lat="49.987575" lon="6.781223">
        <time>2008-06-25T16:15:09Z</time>
      </trkpt>
      <trkpt lat="49.987602" lon="6.781125">
        <time>2008-06-25T16:15:09Z</time>
      </trkpt>
      <trkpt lat="49.987914" lon="6.780294">
        <time>2008-06-25T16:15:09Z</time>
      </trkpt>
      <trkpt lat="49.987914" lon="6.780294">
        <time>2008-06-25T16:15:09Z</time>
      </trkpt>
      <trkpt lat="49.987968" lon="6.780211">
        <time>2008-06-25T16:15:09Z</time>
      </trkpt>
      <trkpt lat="49.988160" lon="6.779670">
        <time>2008-06-25T16:15:09Z</time>
      </trkpt>
      <trkpt lat="49.988160" lon="6.779670">
        <time>2008-06-25T16:15:09Z</time>
      </trkpt>
      <trkpt lat="49.988693" lon="6.780641">
        <time>2008-06-25T16:15:09Z</time>
      </trkpt>
      <trkpt lat="49.988693" lon="6.780641">
        <time>2008-06-25T16:15:09Z</time>
      </trkpt>
      <trkpt lat="49.988711" lon="6.780683">
        <time>2008-06-25T16:15:09Z</time>
      </trkpt>
      <trkpt lat="49.988763" lon="6.780991">
        <time>2008-06-25T16:15:09Z</time>
      </trkpt>
      <trkpt lat="49.988833" lon="6.781187">
        <time>2008-06-25T16:15:09Z</time>
      </trkpt>
      <trkpt lat="49.989117" lon="6.781750">
        <time>2008-06-25T16:15:09Z</time>
      </trkpt>
      <trkpt lat="49.989445" lon="6.782550">
        <ele>313.000000</ele>
        <time>2008-06-25T16:15:09Z</time>
      </trkpt>
      <trkpt lat="49.989445" lon="6.782550">
        <time>2008-06-25T16:15:09Z</time>
      </trkpt>
      <trkpt lat="49.989430" lon="6.783344">
        <time>2008-06-25T16:15:09Z</time>
      </trkpt>
      <trkpt lat="49.989357" lon="6.783483">
        <time>2008-06-25T16:15:09Z</time>
      </trkpt>
      <trkpt lat="49.989357" lon="6.783483">
        <time>2008-06-25T16:15:09Z</time>
      </trkpt>
      <trkpt lat="49.989103" lon="6.783925">
        <time>2008-06-25T16:15:09Z</time>
      </trkpt>
      <trkpt lat="49.988749" lon="6.784435">
        <time>2008-06-25T16:15:09Z</time>
      </trkpt>
      <trkpt lat="49.988377" lon="6.784833">
        <time>2008-06-25T16:15:09Z</time>
      </trkpt>
      <trkpt lat="49.988268" lon="6.785027">
        <time>2008-06-25T16:15:09Z</time>
      </trkpt>
      <trkpt lat="49.988266" lon="6.785375">
        <time>2008-06-25T16:15:09Z</time>
      </trkpt>
      <trkpt lat="49.988274" lon="6.785459">
        <time>2008-06-25T16:15:09Z</time>
      </trkpt>
      <trkpt lat="49.988274" lon="6.785459">
        <time>2008-06-25T16:15:09Z</time>
      </trkpt>
      <trkpt lat="49.988343" lon="6.785906">
        <time>2008-06-25T16:15:09Z</time>
      </trkpt>
      <trkpt lat="49.988509" lon="6.786704">
        <time>2008-06-25T16:15:09Z</time>
      </trkpt>
      <trkpt lat="49.988523" lon="6.787262">
        <time>2008-06-25T16:15:09Z</time>
      </trkpt>
      <trkpt lat="49.988609" lon="6.787779">
        <time>2008-06-25T16:15:09Z</time>
      </trkpt>
      <trkpt lat="49.988697" lon="6.788102">
        <time>2008-06-25T16:15:09Z</time>
      </trkpt>
      <trkpt lat="49.988804" lon="6.788257">
        <time>2008-06-25T16:15:09Z</time>
      </trkpt>
      <trkpt lat="49.988966" lon="6.788259">
        <time>2008-06-25T16:15:09Z</time>
      </trkpt>
      <trkpt lat="49.989082" lon="6.788275">
        <time>2008-06-25T16:15:09Z</time>
      </trkpt>
      <trkpt lat="49.989082" lon="6.788275">
        <time>2008-06-25T16:15:09Z</time>
      </trkpt>
      <trkpt lat="49.989081" lon="6.788401">
        <time>2008-06-25T16:15:09Z</time>
      </trkpt>
      <trkpt lat="49.989035" lon="6.788665">
        <time>2008-06-25T16:15:09Z</time>
      </trkpt>
      <trkpt lat="49.989051" lon="6.788930">
        <time>2008-06-25T16:15:09Z</time>
      </trkpt>
      <trkpt lat="49.989175" lon="6.789183">
        <time>2008-06-25T16:15:09Z</time>
      </trkpt>
      <trkpt lat="49.989319" lon="6.789185">
        <time>2008-06-25T16:15:09Z</time>
      </trkpt>
      <trkpt lat="49.989787" lon="6.789151">
        <time>2008-06-25T16:15:09Z</time>
      </trkpt>
      <trkpt lat="49.990002" lon="6.789155">
        <time>2008-06-25T16:15:09Z</time>
      </trkpt>
      <trkpt lat="49.990180" lon="6.789506">
        <time>2008-06-25T16:15:09Z</time>
      </trkpt>
      <trkpt lat="49.990455" lon="6.789999">
        <time>2008-06-25T16:15:09Z</time>
      </trkpt>
      <trkpt lat="49.990731" lon="6.790436">
        <time>2008-06-25T16:15:09Z</time>
      </trkpt>
      <trkpt lat="49.990855" lon="6.790731">
        <time>2008-06-25T16:15:09Z</time>
      </trkpt>
      <trkpt lat="49.990941" lon="6.791262">
        <time>2008-06-25T16:15:09Z</time>
      </trkpt>
      <trkpt lat="49.990884" lon="6.791707">
        <time>2008-06-25T16:15:09Z</time>
      </trkpt>
      <trkpt lat="49.990762" lon="6.792430">
        <time>2008-06-25T16:15:09Z</time>
      </trkpt>
      <trkpt lat="49.990615" lon="6.792958">
        <time>2008-06-25T16:15:09Z</time>
      </trkpt>
      <trkpt lat="49.990615" lon="6.792958">
        <time>2008-06-25T16:15:09Z</time>
      </trkpt>
      <trkpt lat="49.990107" lon="6.793577">
        <time>2008-06-25T16:15:09Z</time>
      </trkpt>
      <trkpt lat="49.989907" lon="6.793825">
        <time>2008-06-25T16:15:09Z</time>
      </trkpt>
      <trkpt lat="49.989843" lon="6.794033">
        <time>2008-06-25T16:15:09Z</time>
      </trkpt>
      <trkpt lat="49.989868" lon="6.794270">
        <time>2008-06-25T16:15:09Z</time>
      </trkpt>
      <trkpt lat="49.989931" lon="6.794383">
        <time>2008-06-25T16:15:09Z</time>
      </trkpt>
      <trkpt lat="49.990039" lon="6.794259">
        <time>2008-06-25T16:15:09Z</time>
      </trkpt>
      <trkpt lat="49.990122" lon="6.793996">
        <time>2008-06-25T16:15:09Z</time>
      </trkpt>
      <trkpt lat="49.990214" lon="6.793704">
        <time>2008-06-25T16:15:09Z</time>
      </trkpt>
      <trkpt lat="49.990313" lon="6.793706">
        <time>2008-06-25T16:15:09Z</time>
      </trkpt>
      <trkpt lat="49.990330" lon="6.793776">
        <time>2008-06-25T16:15:09Z</time>
      </trkpt>
      <trkpt lat="49.990330" lon="6.793776">
        <time>2008-06-25T16:15:09Z</time>
      </trkpt>
      <trkpt lat="49.990311" lon="6.794027">
        <time>2008-06-25T16:15:09Z</time>
      </trkpt>
      <trkpt lat="49.990300" lon="6.794194">
        <time>2008-06-25T16:15:09Z</time>
      </trkpt>
      <trkpt lat="49.990289" lon="6.794640">
        <time>2008-06-25T16:15:09Z</time>
      </trkpt>
      <trkpt lat="49.990223" lon="6.794946">
        <time>2008-06-25T16:15:09Z</time>
      </trkpt>
      <trkpt lat="49.990034" lon="6.795026">
        <time>2008-06-25T16:15:09Z</time>
      </trkpt>
      <trkpt lat="49.989737" lon="6.795049">
        <time>2008-06-25T16:15:09Z</time>
      </trkpt>
      <trkpt lat="49.989270" lon="6.794986">
        <time>2008-06-25T16:15:09Z</time>
      </trkpt>
      <trkpt lat="49.988839" lon="6.794909">
        <time>2008-06-25T16:15:09Z</time>
      </trkpt>
      <trkpt lat="49.988839" lon="6.794909">
        <time>2008-06-25T16:15:09Z</time>
      </trkpt>
      <trkpt lat="49.988844" lon="6.795509">
        <time>2008-06-25T16:15:09Z</time>
      </trkpt>
      <trkpt lat="49.989019" lon="6.796209">
        <time>2008-06-25T16:15:09Z</time>
      </trkpt>
      <trkpt lat="49.989099" lon="6.796405">
        <time>2008-06-25T16:15:09Z</time>
      </trkpt>
      <trkpt lat="49.989224" lon="6.796435">
        <time>2008-06-25T16:15:09Z</time>
      </trkpt>
      <trkpt lat="49.989226" lon="6.796156">
        <time>2008-06-25T16:15:09Z</time>
      </trkpt>
      <trkpt lat="49.989175" lon="6.795695">
        <ele>264.000000</ele>
        <time>2008-06-25T16:15:09Z</time>
      </trkpt>
      <trkpt lat="49.989175" lon="6.795695">
        <time>2008-06-25T16:15:09Z</time>
      </trkpt>
      <trkpt lat="49.989417" lon="6.795811">
        <time>2008-06-25T16:15:09Z</time>
      </trkpt>
      <trkpt lat="49.989606" lon="6.795898">
        <time>2008-06-25T16:15:09Z</time>
      </trkpt>
      <trkpt lat="49.989703" lon="6.796095">
        <time>2008-06-25T16:15:09Z</time>
      </trkpt>
      <trkpt lat="49.989703" lon="6.796095">
        <time>2008-06-25T16:15:09Z</time>
      </trkpt>
      <trkpt lat="49.989997" lon="6.796476">
        <time>2008-06-25T16:15:09Z</time>
      </trkpt>
      <trkpt lat="49.990290" lon="6.797025">
        <time>2008-06-25T16:15:09Z</time>
      </trkpt>
      <trkpt lat="49.990510" lon="6.797739">
        <time>2008-06-25T16:15:09Z</time>
      </trkpt>
      <trkpt lat="49.990851" lon="6.799126">
        <time>2008-06-25T16:15:09Z</time>
      </trkpt>
      <trkpt lat="49.990851" lon="6.799126">
        <time>2008-06-25T16:15:09Z</time>
      </trkpt>
      <trkpt lat="49.991166" lon="6.799103">
        <time>2008-06-25T16:15:09Z</time>
      </trkpt>
      <trkpt lat="49.991985" lon="6.799033">
        <time>2008-06-25T16:15:09Z</time>
      </trkpt>
      <trkpt lat="49.992595" lon="6.799099">
        <time>2008-06-25T16:15:09Z</time>
      </trkpt>
      <trkpt lat="49.992916" lon="6.799550">
        <time>2008-06-25T16:15:09Z</time>
      </trkpt>
      <trkpt lat="49.992916" lon="6.799550">
        <time>2008-06-25T16:15:09Z</time>
      </trkpt>
      <trkpt lat="49.993330" lon="6.800784">
        <time>2008-06-25T16:15:09Z</time>
      </trkpt>
      <trkpt lat="49.993504" lon="6.801582">
        <time>2008-06-25T16:15:09Z</time>
      </trkpt>
      <trkpt lat="49.993531" lon="6.801680">
        <time>2008-06-25T16:15:09Z</time>
      </trkpt>
      <trkpt lat="49.993531" lon="6.801680">
        <time>2008-06-25T16:15:09Z</time>
      </trkpt>
      <trkpt lat="49.993612" lon="6.801654">
        <time>2008-06-25T16:15:09Z</time>
      </trkpt>
      <trkpt lat="49.993766" lon="6.801405">
        <time>2008-06-25T16:15:09Z</time>
      </trkpt>
      <trkpt lat="49.994003" lon="6.800921">
        <ele>243.000000</ele>
        <time>2008-06-25T16:15:09Z</time>
      </trkpt>
      <trkpt lat="49.994003" lon="6.800921">
        <time>2008-06-25T16:15:09Z</time>
      </trkpt>
      <trkpt lat="49.994180" lon="6.801343">
        <time>2008-06-25T16:15:09Z</time>
      </trkpt>
      <trkpt lat="49.994357" lon="6.801820">
        <time>2008-06-25T16:15:09Z</time>
      </trkpt>
      <trkpt lat="49.994357" lon="6.801820">
        <time>2008-06-25T16:15:09Z</time>
      </trkpt>
      <trkpt lat="49.995182" lon="6.800745">
        <time>2008-06-25T16:15:09Z</time>
      </trkpt>
      <trkpt lat="49.995970" lon="6.799936">
        <time>2008-06-25T16:15:09Z</time>
      </trkpt>
      <trkpt lat="49.996179" lon="6.799674">
        <time>2008-06-25T16:15:09Z</time>
      </trkpt>
      <trkpt lat="49.996179" lon="6.799674">
        <time>2008-06-25T16:15:09Z</time>
      </trkpt>
      <trkpt lat="49.996296" lon="6.799551">
        <time>2008-06-25T16:15:09Z</time>
      </trkpt>
      <trkpt lat="49.996605" lon="6.799207">
        <time>2008-06-25T16:15:09Z</time>
      </trkpt>
      <trkpt lat="49.996761" lon="6.798708">
        <time>2008-06-25T16:15:09Z</time>
      </trkpt>
      <trkpt lat="49.996771" lon="6.797257">
        <time>2008-06-25T16:15:09Z</time>
      </trkpt>
      <trkpt lat="49.996750" lon="6.796336">
        <time>2008-06-25T16:15:09Z</time>
      </trkpt>
      <trkpt lat="49.996877" lon="6.796115">
        <time>2008-06-25T16:15:09Z</time>
      </trkpt>
      <trkpt lat="49.996877" lon="6.796115">
        <time>2008-06-25T16:15:09Z</time>
      </trkpt>
      <trkpt lat="49.996950" lon="6.796019">
        <time>2008-06-25T16:15:09Z</time>
      </trkpt>
      <trkpt lat="49.997120" lon="6.796078">
        <time>2008-06-25T16:15:09Z</time>
      </trkpt>
      <trkpt lat="49.997325" lon="6.796457">
        <time>2008-06-25T16:15:09Z</time>
      </trkpt>
      <trkpt lat="49.997716" lon="6.797133">
        <time>2008-06-25T16:15:09Z</time>
      </trkpt>
      <trkpt lat="49.998215" lon="6.797783">
        <time>2008-06-25T16:15:09Z</time>
      </trkpt>
      <trkpt lat="49.998705" lon="6.798335">
        <time>2008-06-25T16:15:09Z</time>
      </trkpt>
      <trkpt lat="49.998830" lon="6.798491">
        <time>2008-06-25T16:15:09Z</time>
      </trkpt>
      <trkpt lat="49.998830" lon="6.798491">
        <time>2008-06-25T16:15:09Z</time>
      </trkpt>
      <trkpt lat="49.998900" lon="6.798799">
        <time>2008-06-25T16:15:09Z</time>
      </trkpt>
      <trkpt lat="49.998970" lon="6.799051">
        <time>2008-06-25T16:15:09Z</time>
      </trkpt>
      <trkpt lat="49.999113" lon="6.799123">
        <time>2008-06-25T16:15:09Z</time>
      </trkpt>
      <trkpt lat="49.999375" lon="6.799016">
        <ele>259.000000</ele>
        <time>2008-06-25T16:15:09Z</time>
      </trkpt>
      <trkpt lat="49.999375" lon="6.799016">
        <time>2008-06-25T16:15:09Z</time>
      </trkpt>
      <trkpt lat="49.999378" lon="6.798556">
        <time>2008-06-25T16:15:09Z</time>
      </trkpt>
      <trkpt lat="49.999293" lon="6.797899">
        <time>2008-06-25T16:15:09Z</time>
      </trkpt>
      <trkpt lat="49.999293" lon="6.797899">
        <time>2008-06-25T16:15:09Z</time>
      </trkpt>
      <trkpt lat="49.999293" lon="6.797815">
        <time>2008-06-25T16:15:09Z</time>
      </trkpt>
      <trkpt lat="49.999162" lon="6.797269">
        <time>2008-06-25T16:15:09Z</time>
      </trkpt>
      <trkpt lat="49.999162" lon="6.797269">
        <time>2008-06-25T16:15:09Z</time>
      </trkpt>
      <trkpt lat="49.999111" lon="6.796836">
        <time>2008-06-25T16:15:09Z</time>
      </trkpt>
      <trkpt lat="49.999123" lon="6.796487">
        <time>2008-06-25T16:15:09Z</time>
      </trkpt>
      <trkpt lat="49.999123" lon="6.796487">
        <time>2008-06-25T16:15:09Z</time>
      </trkpt>
      <trkpt lat="49.999312" lon="6.796407">
        <ele>274.000000</ele>
        <time>2008-06-25T16:15:09Z</time>
      </trkpt>
      <trkpt lat="49.999312" lon="6.796407">
        <time>2008-06-25T16:15:09Z</time>
      </trkpt>
      <trkpt lat="49.999490" lon="6.796633">
        <time>2008-06-25T16:15:09Z</time>
      </trkpt>
      <trkpt lat="49.999733" lon="6.796609">
        <time>2008-06-25T16:15:09Z</time>
      </trkpt>
      <trkpt lat="50.000128" lon="6.796755">
        <time>2008-06-25T16:15:09Z</time>
      </trkpt>
      <trkpt lat="50.000433" lon="6.796844">
        <time>2008-06-25T16:15:09Z</time>
      </trkpt>
      <trkpt lat="50.000622" lon="6.796693">
        <time>2008-06-25T16:15:09Z</time>
      </trkpt>
      <trkpt lat="50.000741" lon="6.796444">
        <time>2008-06-25T16:15:09Z</time>
      </trkpt>
      <trkpt lat="50.000741" lon="6.796444">
        <time>2008-06-25T16:15:09Z</time>
      </trkpt>
      <trkpt lat="50.001145" lon="6.795265">
        <time>2008-06-25T16:15:09Z</time>
      </trkpt>
      <trkpt lat="50.001408" lon="6.794921">
        <time>2008-06-25T16:15:09Z</time>
      </trkpt>
      <trkpt lat="50.001408" lon="6.794921">
        <time>2008-06-25T16:15:09Z</time>
      </trkpt>
      <trkpt lat="50.001628" lon="6.794339">
        <time>2008-06-25T16:15:09Z</time>
      </trkpt>
      <trkpt lat="50.001810" lon="6.794007">
        <time>2008-06-25T16:15:09Z</time>
      </trkpt>
      <trkpt lat="50.002188" lon="6.793860">
        <time>2008-06-25T16:15:09Z</time>
      </trkpt>
      <trkpt lat="50.002532" lon="6.793614">
        <time>2008-06-25T16:15:09Z</time>
      </trkpt>
      <trkpt lat="50.002532" lon="6.793614">
        <time>2008-06-25T16:15:09Z</time>
      </trkpt>
      <trkpt lat="50.002284" lon="6.793066">
        <time>2008-06-25T16:15:09Z</time>
      </trkpt>
      <trkpt lat="50.002097" lon="6.792770">
        <time>2008-06-25T16:15:09Z</time>
      </trkpt>
      <trkpt lat="50.002065" lon="6.792212">
        <time>2008-06-25T16:15:09Z</time>
      </trkpt>
      <trkpt lat="50.002275" lon="6.791755">
        <time>2008-06-25T16:15:09Z</time>
      </trkpt>
      <trkpt lat="50.002340" lon="6.791393">
        <time>2008-06-25T16:15:09Z</time>
      </trkpt>
      <trkpt lat="50.002340" lon="6.791393">
        <time>2008-06-25T16:15:09Z</time>
      </trkpt>
      <trkpt lat="50.002601" lon="6.791342">
        <time>2008-06-25T16:15:09Z</time>
      </trkpt>
      <trkpt lat="50.003070" lon="6.791182">
        <time>2008-06-25T16:15:09Z</time>
      </trkpt>
      <trkpt lat="50.003348" lon="6.791201">
        <time>2008-06-25T16:15:09Z</time>
      </trkpt>
      <trkpt lat="50.003592" lon="6.791037">
        <time>2008-06-25T16:15:09Z</time>
      </trkpt>
      <trkpt lat="50.003702" lon="6.790760">
        <time>2008-06-25T16:15:09Z</time>
      </trkpt>
      <trkpt lat="50.003702" lon="6.790760">
        <time>2008-06-25T16:15:09Z</time>
      </trkpt>
      <trkpt lat="50.003677" lon="6.790467">
        <time>2008-06-25T16:15:09Z</time>
      </trkpt>
      <trkpt lat="50.003608" lon="6.790019">
        <time>2008-06-25T16:15:09Z</time>
      </trkpt>
      <trkpt lat="50.003279" lon="6.789512">
        <time>2008-06-25T16:15:09Z</time>
      </trkpt>
      <trkpt lat="50.002740" lon="6.789405">
        <time>2008-06-25T16:15:09Z</time>
      </trkpt>
      <trkpt lat="50.002382" lon="6.789232">
        <time>2008-06-25T16:15:09Z</time>
      </trkpt>
      <trkpt lat="50.002159" lon="6.788921">
        <time>2008-06-25T16:15:09Z</time>
      </trkpt>
      <trkpt lat="50.002018" lon="6.788487">
        <time>2008-06-25T16:15:09Z</time>
      </trkpt>
      <trkpt lat="50.002295" lon="6.787487">
        <time>2008-06-25T16:15:09Z</time>
      </trkpt>
      <trkpt lat="50.002525" lon="6.786710">
        <time>2008-06-25T16:15:09Z</time>
      </trkpt>
      <trkpt lat="50.002556" lon="6.786069">
        <time>2008-06-25T16:15:09Z</time>
      </trkpt>
      <trkpt lat="50.002469" lon="6.785621">
        <time>2008-06-25T16:15:09Z</time>
      </trkpt>
      <trkpt lat="50.002469" lon="6.785621">
        <time>2008-06-25T16:15:09Z</time>
      </trkpt>
      <trkpt lat="50.002364" lon="6.785214">
        <time>2008-06-25T16:15:09Z</time>
      </trkpt>
      <trkpt lat="50.002259" lon="6.784822">
        <time>2008-06-25T16:15:09Z</time>
      </trkpt>
      <trkpt lat="50.002377" lon="6.784671">
        <time>2008-06-25T16:15:09Z</time>
      </trkpt>
      <trkpt lat="50.002431" lon="6.784658">
        <ele>262.000000</ele>
        <time>2008-06-25T16:15:09Z</time>
      </trkpt>
      <trkpt lat="50.002431" lon="6.784658">
        <time>2008-06-25T16:15:09Z</time>
      </trkpt>
      <trkpt lat="50.002619" lon="6.784800">
        <time>2008-06-25T16:15:09Z</time>
      </trkpt>
      <trkpt lat="50.002954" lon="6.785643">
        <time>2008-06-25T16:15:09Z</time>
      </trkpt>
      <trkpt lat="50.003174" lon="6.786497">
        <time>2008-06-25T16:15:09Z</time>
      </trkpt>
      <trkpt lat="50.003174" lon="6.786497">
        <time>2008-06-25T16:15:09Z</time>
      </trkpt>
      <trkpt lat="50.003281" lon="6.786582">
        <time>2008-06-25T16:15:09Z</time>
      </trkpt>
      <trkpt lat="50.003478" lon="6.786711">
        <time>2008-06-25T16:15:09Z</time>
      </trkpt>
      <trkpt lat="50.003690" lon="6.787259">
        <time>2008-06-25T16:15:09Z</time>
      </trkpt>
      <trkpt lat="50.003690" lon="6.787259">
        <time>2008-06-25T16:15:09Z</time>
      </trkpt>
      <trkpt lat="50.003905" lon="6.787318">
        <time>2008-06-25T16:15:09Z</time>
      </trkpt>
      <trkpt lat="50.004208" lon="6.787783">
        <time>2008-06-25T16:15:09Z</time>
      </trkpt>
      <trkpt lat="50.004633" lon="6.788641">
        <time>2008-06-25T16:15:09Z</time>
      </trkpt>
      <trkpt lat="50.004917" lon="6.789190">
        <time>2008-06-25T16:15:09Z</time>
      </trkpt>
      <trkpt lat="50.005285" lon="6.789363">
        <time>2008-06-25T16:15:09Z</time>
      </trkpt>
      <trkpt lat="50.005592" lon="6.789215">
        <time>2008-06-25T16:15:09Z</time>
      </trkpt>
      <trkpt lat="50.005783" lon="6.788813">
        <time>2008-06-25T16:15:09Z</time>
      </trkpt>
      <trkpt lat="50.006032" lon="6.787883">
        <time>2008-06-25T16:15:09Z</time>
      </trkpt>
      <trkpt lat="50.006216" lon="6.787300">
        <time>2008-06-25T16:15:09Z</time>
      </trkpt>
      <trkpt lat="50.006369" lon="6.787289">
        <time>2008-06-25T16:15:09Z</time>
      </trkpt>
      <trkpt lat="50.006920" lon="6.788204">
        <time>2008-06-25T16:15:09Z</time>
      </trkpt>
      <trkpt lat="50.007258" lon="6.788754">
        <time>2008-06-25T16:15:09Z</time>
      </trkpt>
      <trkpt lat="50.007591" lon="6.788759">
        <time>2008-06-25T16:15:09Z</time>
      </trkpt>
      <trkpt lat="50.008060" lon="6.788516">
        <time>2008-06-25T16:15:09Z</time>
      </trkpt>
      <trkpt lat="50.008141" lon="6.788517">
        <time>2008-06-25T16:15:09Z</time>
      </trkpt>
      <trkpt lat="50.008141" lon="6.788517">
        <time>2008-06-25T16:15:09Z</time>
      </trkpt>
      <trkpt lat="50.008761" lon="6.788458">
        <time>2008-06-25T16:15:09Z</time>
      </trkpt>
      <trkpt lat="50.009425" lon="6.788664">
        <time>2008-06-25T16:15:09Z</time>
      </trkpt>
      <trkpt lat="50.009945" lon="6.788937">
        <time>2008-06-25T16:15:09Z</time>
      </trkpt>
      <trkpt lat="50.010298" lon="6.789794">
        <time>2008-06-25T16:15:09Z</time>
      </trkpt>
      <trkpt lat="50.010485" lon="6.790146">
        <time>2008-06-25T16:15:09Z</time>
      </trkpt>
      <trkpt lat="50.010905" lon="6.790571">
        <time>2008-06-25T16:15:09Z</time>
      </trkpt>
      <trkpt lat="50.011233" lon="6.791135">
        <time>2008-06-25T16:15:09Z</time>
      </trkpt>
      <trkpt lat="50.011436" lon="6.791780">
        <time>2008-06-25T16:15:09Z</time>
      </trkpt>
      <trkpt lat="50.011445" lon="6.791822">
        <ele>263.000000</ele>
        <time>2008-06-25T16:15:09Z</time>
      </trkpt>
      <trkpt lat="50.011445" lon="6.791822">
        <time>2008-06-25T16:15:09Z</time>
      </trkpt>
      <trkpt lat="50.011602" lon="6.792480">
        <time>2008-06-25T16:15:09Z</time>
      </trkpt>
      <trkpt lat="50.011628" lon="6.792564">
        <time>2008-06-25T16:15:09Z</time>
      </trkpt>
      <trkpt lat="50.011628" lon="6.792564">
        <time>2008-06-25T16:15:09Z</time>
      </trkpt>
      <trkpt lat="50.011722" lon="6.793347">
        <time>2008-06-25T16:15:09Z</time>
      </trkpt>
      <trkpt lat="50.011909" lon="6.793587">
        <time>2008-06-25T16:15:09Z</time>
      </trkpt>
      <trkpt lat="50.012070" lon="6.793716">
        <time>2008-06-25T16:15:09Z</time>
      </trkpt>
      <trkpt lat="50.012070" lon="6.793716">
        <time>2008-06-25T16:15:09Z</time>
      </trkpt>
      <trkpt lat="50.012231" lon="6.793886">
        <time>2008-06-25T16:15:09Z</time>
      </trkpt>
      <trkpt lat="50.012365" lon="6.793916">
        <time>2008-06-25T16:15:09Z</time>
      </trkpt>
      <trkpt lat="50.012474" lon="6.793792">
        <time>2008-06-25T16:15:09Z</time>
      </trkpt>
      <trkpt lat="50.012592" lon="6.793585">
        <time>2008-06-25T16:15:09Z</time>
      </trkpt>
      <trkpt lat="50.012592" lon="6.793585">
        <time>2008-06-25T16:15:09Z</time>
      </trkpt>
      <trkpt lat="50.012748" lon="6.793155">
        <time>2008-06-25T16:15:09Z</time>
      </trkpt>
      <trkpt lat="50.012924" lon="6.792376">
        <time>2008-06-25T16:15:09Z</time>
      </trkpt>
      <trkpt lat="50.013082" lon="6.791681">
        <time>2008-06-25T16:15:09Z</time>
      </trkpt>
      <trkpt lat="50.013082" lon="6.791681">
        <time>2008-06-25T16:15:09Z</time>
      </trkpt>
      <trkpt lat="50.013075" lon="6.791402">
        <time>2008-06-25T16:15:09Z</time>
      </trkpt>
      <trkpt lat="50.013060" lon="6.790956">
        <time>2008-06-25T16:15:09Z</time>
      </trkpt>
      <trkpt lat="50.013125" lon="6.790580">
        <time>2008-06-25T16:15:09Z</time>
      </trkpt>
      <trkpt lat="50.013217" lon="6.790274">
        <time>2008-06-25T16:15:09Z</time>
      </trkpt>
      <trkpt lat="50.013213" lon="6.789633">
        <time>2008-06-25T16:15:09Z</time>
      </trkpt>
      <trkpt lat="50.013279" lon="6.789118">
        <time>2008-06-25T16:15:09Z</time>
      </trkpt>
      <trkpt lat="50.013361" lon="6.788896">
        <time>2008-06-25T16:15:09Z</time>
      </trkpt>
      <trkpt lat="50.013525" lon="6.788647">
        <time>2008-06-25T16:15:09Z</time>
      </trkpt>
      <trkpt lat="50.013760" lon="6.788484">
        <time>2008-06-25T16:15:09Z</time>
      </trkpt>
      <trkpt lat="50.013976" lon="6.788389">
        <time>2008-06-25T16:15:09Z</time>
      </trkpt>
      <trkpt lat="50.014085" lon="6.788280">
        <ele>269.000000</ele>
        <time>2008-06-25T16:15:09Z</time>
      </trkpt>
      <trkpt lat="50.014085" lon="6.788280">
        <time>2008-06-25T16:15:09Z</time>
      </trkpt>
      <trkpt lat="50.014346" lon="6.788214">
        <time>2008-06-25T16:15:09Z</time>
      </trkpt>
      <trkpt lat="50.014437" lon="6.788104">
        <time>2008-06-25T16:15:09Z</time>
      </trkpt>
      <trkpt lat="50.014393" lon="6.787908">
        <time>2008-06-25T16:15:09Z</time>
      </trkpt>
      <trkpt lat="50.014305" lon="6.787697">
        <ele>279.000000</ele>
        <time>2008-06-25T16:15:09Z</time>
      </trkpt>
      <trkpt lat="50.014305" lon="6.787697">
        <time>2008-06-25T16:15:09Z</time>
      </trkpt>
      <trkpt lat="50.014306" lon="6.787488">
        <time>2008-06-25T16:15:09Z</time>
      </trkpt>
      <trkpt lat="50.014416" lon="6.787239">
        <time>2008-06-25T16:15:09Z</time>
      </trkpt>
      <trkpt lat="50.014562" lon="6.786836">
        <time>2008-06-25T16:15:09Z</time>
      </trkpt>
      <trkpt lat="50.014590" lon="6.786767">
        <ele>273.000000</ele>
        <time>2008-06-25T16:15:09Z</time>
      </trkpt>
      <trkpt lat="50.014590" lon="6.786767">
        <time>2008-06-25T16:15:09Z</time>
      </trkpt>
      <trkpt lat="50.014635" lon="6.786726">
        <time>2008-06-25T16:15:09Z</time>
      </trkpt>
      <trkpt lat="50.014906" lon="6.786577">
        <ele>283.000000</ele>
        <time>2008-06-25T16:15:09Z</time>
      </trkpt>
      <trkpt lat="50.014906" lon="6.786577">
        <time>2008-06-25T16:15:09Z</time>
      </trkpt>
      <trkpt lat="50.014963" lon="6.785992">
        <time>2008-06-25T16:15:09Z</time>
      </trkpt>
      <trkpt lat="50.015079" lon="6.784822">
        <time>2008-06-25T16:15:09Z</time>
      </trkpt>
      <trkpt lat="50.015087" lon="6.783678">
        <ele>276.000000</ele>
        <time>2008-06-25T16:15:09Z</time>
      </trkpt>
      <trkpt lat="50.015087" lon="6.783678">
        <time>2008-06-25T16:15:09Z</time>
      </trkpt>
      <trkpt lat="50.015175" lon="6.782633">
        <time>2008-06-25T16:15:09Z</time>
      </trkpt>
      <trkpt lat="50.015245" lon="6.781587">
        <time>2008-06-25T16:15:09Z</time>
      </trkpt>
      <trkpt lat="50.015367" lon="6.780780">
        <time>2008-06-25T16:15:09Z</time>
      </trkpt>
      <trkpt lat="50.015367" lon="6.780780">
        <time>2008-06-25T16:15:09Z</time>
      </trkpt>
      <trkpt lat="50.015755" lon="6.780675">
        <time>2008-06-25T16:15:09Z</time>
      </trkpt>
      <trkpt lat="50.016176" lon="6.780863">
        <ele>296.000000</ele>
        <time>2008-06-25T16:15:09Z</time>
      </trkpt>
      <trkpt lat="50.016176" lon="6.780863">
        <time>2008-06-25T16:15:09Z</time>
      </trkpt>
      <trkpt lat="50.016649" lon="6.781303">
        <time>2008-06-25T16:15:09Z</time>
      </trkpt>
      <trkpt lat="50.017176" lon="6.781926">
        <time>2008-06-25T16:15:09Z</time>
      </trkpt>
      <trkpt lat="50.017176" lon="6.781926">
        <time>2008-06-25T16:15:09Z</time>
      </trkpt>
      <trkpt lat="50.017270" lon="6.781271">
        <time>2008-06-25T16:15:09Z</time>
      </trkpt>
      <trkpt lat="50.017557" lon="6.780104">
        <time>2008-06-25T16:15:09Z</time>
      </trkpt>
      <trkpt lat="50.017816" lon="6.778964">
        <ele>303.000000</ele>
        <time>2008-06-25T16:15:09Z</time>
      </trkpt>
      <trkpt lat="50.017816" lon="6.778964">
        <time>2008-06-25T16:15:09Z</time>
      </trkpt>
      <trkpt lat="50.018071" lon="6.778494">
        <time>2008-06-25T16:15:09Z</time>
      </trkpt>
      <trkpt lat="50.018417" lon="6.777760">
        <ele>302.000000</ele>
        <time>2008-06-25T16:15:09Z</time>
      </trkpt>
      <trkpt lat="50.018417" lon="6.777760">
        <time>2008-06-25T16:15:09Z</time>
      </trkpt>
      <trkpt lat="50.018650" lon="6.776634">
        <time>2008-06-25T16:15:09Z</time>
      </trkpt>
      <trkpt lat="50.018826" lon="6.775757">
        <time>2008-06-25T16:15:09Z</time>
      </trkpt>
      <trkpt lat="50.018854" lon="6.775646">
        <ele>293.000000</ele>
        <time>2008-06-25T16:15:09Z</time>
      </trkpt>
      <trkpt lat="50.018854" lon="6.775646">
        <time>2008-06-25T16:15:09Z</time>
      </trkpt>
      <trkpt lat="50.018992" lon="6.775202">
        <time>2008-06-25T16:15:09Z</time>
      </trkpt>
      <trkpt lat="50.019247" lon="6.774717">
        <time>2008-06-25T16:15:09Z</time>
      </trkpt>
      <trkpt lat="50.019736" lon="6.774223">
        <ele>288.000000</ele>
        <time>2008-06-25T16:15:09Z</time>
      </trkpt>
      <trkpt lat="50.019736" lon="6.774223">
        <time>2008-06-25T16:15:09Z</time>
      </trkpt>
      <trkpt lat="50.019604" lon="6.773733">
        <time>2008-06-25T16:15:09Z</time>
      </trkpt>
      <trkpt lat="50.019642" lon="6.773426">
        <time>2008-06-25T16:15:09Z</time>
      </trkpt>
      <trkpt lat="50.019944" lon="6.772580">
        <time>2008-06-25T16:15:09Z</time>
      </trkpt>
      <trkpt lat="50.019938" lon="6.772245">
        <time>2008-06-25T16:15:09Z</time>
      </trkpt>
      <trkpt lat="50.019640" lon="6.771096">
        <ele>276.000000</ele>
        <time>2008-06-25T16:15:09Z</time>
      </trkpt>
      <trkpt lat="50.019640" lon="6.771096">
        <time>2008-06-25T16:15:09Z</time>
      </trkpt>
      <trkpt lat="50.019870" lon="6.770193">
        <time>2008-06-25T16:15:09Z</time>
      </trkpt>
      <trkpt lat="50.020046" lon="6.769540">
        <time>2008-06-25T16:15:09Z</time>
      </trkpt>
      <trkpt lat="50.020157" lon="6.768983">
        <time>2008-06-25T16:15:09Z</time>
      </trkpt>
      <trkpt lat="50.020252" lon="6.768189">
        <time>2008-06-25T16:15:09Z</time>
      </trkpt>
      <trkpt lat="50.020420" lon="6.767369">
        <time>2008-06-25T16:15:09Z</time>
      </trkpt>
      <trkpt lat="50.020821" lon="6.766454">
        <time>2008-06-25T16:15:09Z</time>
      </trkpt>
      <trkpt lat="50.021265" lon="6.766001">
        <time>2008-06-25T16:15:09Z</time>
      </trkpt>
      <trkpt lat="50.021265" lon="6.766001">
        <time>2008-06-25T16:15:09Z</time>
      </trkpt>
      <trkpt lat="50.021888" lon="6.765480">
        <time>2008-06-25T16:15:09Z</time>
      </trkpt>
      <trkpt lat="50.022623" lon="6.764585">
        <time>2008-06-25T16:15:09Z</time>
      </trkpt>
      <trkpt lat="50.023105" lon="6.763713">
        <time>2008-06-25T16:15:09Z</time>
      </trkpt>
      <trkpt lat="50.023297" lon="6.763270">
        <time>2008-06-25T16:15:09Z</time>
      </trkpt>
      <trkpt lat="50.023435" lon="6.762784">
        <ele>282.000000</ele>
        <time>2008-06-25T16:15:09Z</time>
      </trkpt>
      <trkpt lat="50.023435" lon="6.762784">
        <time>2008-06-25T16:15:09Z</time>
      </trkpt>
      <trkpt lat="50.023511" lon="6.762059">
        <time>2008-06-25T16:15:09Z</time>
      </trkpt>
      <trkpt lat="50.023633" lon="6.761252">
        <ele>292.000000</ele>
        <time>2008-06-25T16:15:09Z</time>
      </trkpt>
      <trkpt lat="50.023633" lon="6.761252">
        <time>2008-06-25T16:15:09Z</time>
      </trkpt>
      <trkpt lat="50.023636" lon="6.760819">
        <time>2008-06-25T16:15:09Z</time>
      </trkpt>
      <trkpt lat="50.023693" lon="6.760332">
        <time>2008-06-25T16:15:09Z</time>
      </trkpt>
      <trkpt lat="50.023796" lon="6.759803">
        <time>2008-06-25T16:15:09Z</time>
      </trkpt>
      <trkpt lat="50.024060" lon="6.759291">
        <time>2008-06-25T16:15:09Z</time>
      </trkpt>
      <trkpt lat="50.024539" lon="6.758810">
        <time>2008-06-25T16:15:09Z</time>
      </trkpt>
      <trkpt lat="50.024874" lon="6.758592">
        <ele>301.000000</ele>
        <time>2008-06-25T16:15:09Z</time>
      </trkpt>
      <trkpt lat="50.024874" lon="6.758592">
        <time>2008-06-25T16:15:09Z</time>
      </trkpt>
      <trkpt lat="50.024776" lon="6.758423">
        <time>2008-06-25T16:15:09Z</time>
      </trkpt>
      <trkpt lat="50.024768" lon="6.758270">
        <time>2008-06-25T16:15:09Z</time>
      </trkpt>
      <trkpt lat="50.024733" lon="6.758032">
        <time>2008-06-25T16:15:09Z</time>
      </trkpt>
      <trkpt lat="50.024637" lon="6.757667">
        <time>2008-06-25T16:15:09Z</time>
      </trkpt>
      <trkpt lat="50.024469" lon="6.757232">
        <time>2008-06-25T16:15:09Z</time>
      </trkpt>
      <trkpt lat="50.024446" lon="6.756632">
        <ele>293.000000</ele>
        <time>2008-06-25T16:15:09Z</time>
      </trkpt>
      <trkpt lat="50.024446" lon="6.756632">
        <time>2008-06-25T16:15:09Z</time>
      </trkpt>
      <trkpt lat="50.024685" lon="6.755742">
        <time>2008-06-25T16:15:09Z</time>
      </trkpt>
      <trkpt lat="50.024685" lon="6.755742">
        <time>2008-06-25T16:15:09Z</time>
      </trkpt>
      <trkpt lat="50.025405" lon="6.755614">
        <time>2008-06-25T16:15:09Z</time>
      </trkpt>
      <trkpt lat="50.025659" lon="6.755339">
        <time>2008-06-25T16:15:09Z</time>
      </trkpt>
      <trkpt lat="50.025888" lon="6.754742">
        <time>2008-06-25T16:15:09Z</time>
      </trkpt>
      <trkpt lat="50.026162" lon="6.754021">
        <time>2008-06-25T16:15:09Z</time>
      </trkpt>
      <trkpt lat="50.026480" lon="6.753496">
        <time>2008-06-25T16:15:09Z</time>
      </trkpt>
      <trkpt lat="50.026842" lon="6.753083">
        <time>2008-06-25T16:15:09Z</time>
      </trkpt>
      <trkpt lat="50.027540" lon="6.752326">
        <time>2008-06-25T16:15:09Z</time>
      </trkpt>
      <trkpt lat="50.028858" lon="6.751384">
        <ele>294.000000</ele>
        <time>2008-06-25T16:15:09Z</time>
      </trkpt>
      <trkpt lat="50.028858" lon="6.751384">
        <time>2008-06-25T16:15:09Z</time>
      </trkpt>
      <trkpt lat="50.029265" lon="6.753832">
        <time>2008-06-25T16:15:09Z</time>
      </trkpt>
      <trkpt lat="50.029265" lon="6.753832">
        <time>2008-06-25T16:15:09Z</time>
      </trkpt>
      <trkpt lat="50.029359" lon="6.754574">
        <time>2008-06-25T16:15:09Z</time>
      </trkpt>
      <trkpt lat="50.029359" lon="6.754574">
        <time>2008-06-25T16:15:09Z</time>
      </trkpt>
      <trkpt lat="50.029257" lon="6.755088">
        <time>2008-06-25T16:15:09Z</time>
      </trkpt>
      <trkpt lat="50.029264" lon="6.755423">
        <ele>299.000000</ele>
        <time>2008-06-25T16:15:09Z</time>
      </trkpt>
      <trkpt lat="50.029264" lon="6.755423">
        <time>2008-06-25T16:15:09Z</time>
      </trkpt>
      <trkpt lat="50.028902" lon="6.755697">
        <time>2008-06-25T16:15:09Z</time>
      </trkpt>
    </trkseg>
  </trk>

</gpx>
